Location: ??????????
(54.4061°N, 22.6114°E)
Time: 11:20:16
(UTC+00:00)

Cosmos 2297 - Pass Details

Date: 23 October 2019
Orbit: 834 x 860 km, 71.0° (Epoch: 20 November)

Event Time Altitude Azimuth Distance (km) Brightness Sun altitude
Rises 16:34:56 0° 175° (S) 3,402 6.8 -12.4°
Reaches altitude 10° 16:37:37 10° 166° (SSE) 2,475 6.0 -12.7°
Maximum altitude 16:42:30 31° 106° (ESE) 1,472 4.4 -13.5°
Enters shadow 16:47:26 10° 47° (NE) 2,499 5.7 -14.2°
